Regional Weather Roundup
Issued by NWS Green Bay, WI

Home | Current Version | Previous Version | Graphics & Text | Print | Product List | Glossary Off
Versions: 1 2 3 4 5 6 7 8 9 10 11 12 13 14 15 16 17 18 19 20 21 22 23 24 25 26 27 28 29 30 31 32 33 34 35 36 37 38 39 40 41 42 43 44 45 46 47 48 49 50

000
ASUS43 KGRB 270110
RWRGRB

NORTH-CENTRAL AND NORTHEAST WISCONSIN REGIONAL WEATHER ROUNDUP
NATIONAL WEATHER SERVICE GREEN BAY WI
700 PM CST THU FEB 26 2015

WIZ005-009-010>012-018-019-270200-
NORTH CENTRAL WISCONSIN

CITY           SKY/WX    TMP DP  RH WIND       PRES   REMARKS
IRONWOOD       CLEAR     -2  -9  71 W6        30.30S WCI -14
MANITOWISH WTR CLEAR     -1 -12  61 NW5       30.28R WCI -12
ARBOR VITAE    CLEAR      0  -9  64 CALM      30.28R
EAGLE RIVER    CLEAR      0 -12  57 CALM      30.27R
LAND O LAKES   CLEAR      0  -9  64 CALM      30.27R
RHINELANDER    CLEAR     -1 -12  59 CALM      30.28R
PHILLIPS       CLEAR      3 -10  54 CALM      30.30R
ANTIGO         CLEAR      1 -11  57 NW5       30.28R WCI  -8
TOMAHAWK       CLEAR     -2 -12  63 CALM      30.30R
MERRILL        CLEAR      5 -10  51 CALM      30.31R
$$

WIZ013-073-270200-
NORTHEAST WISCONSIN

CITY           SKY/WX    TMP DP  RH WIND       PRES   REMARKS
IRON MOUNTAIN  CLEAR      0 -12  57 NW5       30.28R WCI -10
MARINETTE      CLEAR      3  -6  66 CALM      30.34R
OCONTO           N/A      0  -7  74 CALM      30.36R
$$

WIZ017-030-035>037-045-270200-
CENTRAL WISCONSIN

CITY           SKY/WX    TMP DP  RH WIND       PRES   REMARKS
MEDFORD        CLEAR      2  -9  58 W6        30.31R WCI  -9
WAUSAU         CLEAR      6  -8  52 NW7       30.31R WCI  -6
MOSINEE        CLEAR      5  -8  56 W8        30.33R WCI  -8
MARSHFIELD     CLEAR      3  -9  57 W6        30.34R WCI  -8
WISC RAPIDS    CLEAR      4 -10  52 W5        30.37R WCI  -5
STEVENS POINT  CLEAR      4  -7  60 W5        30.35R WCI  -5
WAUPACA          N/A      9  -8  46 W5        30.36R WCI   1
SHAWANO        CLEAR     11  -8  42 CALM      30.35R
CLINTONVILLE   CLEAR      9  -8  47 W6        30.34R WCI  -1
$$

WIZ038-039-048-051-270200-
FOX VALLEY

CITY           SKY/WX    TMP DP  RH WIND       PRES   REMARKS
NWS GREEN BAY  CLEAR      9  -3  58 SW5       30.35R WCI   1
APPLETON       PTCLDY     9  -9  43 W6        30.34R WCI  -1
OSHKOSH        CLEAR      7  -4  60 CALM      30.35R
FOND DU LAC    CLEAR      3  -6  66 SW3       30.36R
$$

WIZ022-050-052-270200-
EAST CENTRAL WISCONSIN

CITY           SKY/WX    TMP DP  RH WIND       PRES   REMARKS
STURGEON BAY   CLEAR      3  -8  60 SW3       30.35R
MANITOWOC      CLEAR      3  -7  63 CALM      30.37R
SHEBOYGAN      CLEAR      3  -7  63 CALM      30.36R
$$

LMZ563-521-522-541>543-270200-
LAKESHORE

STATION/POSITION TIME  TEMP    WIND        PRES    VSBY  WAVE
                       AIR SEA DIR/SP/G                  HT/PER
                 (UTC) (F)     (DEG/KT/KT) (MB)    (MI)  (FT/S)
SHEBOYGAN LKSHOR 0100   10     300/  4/  5 1030.4R
KEWAUNEE LKSHORE 0100    7      CALM  /  1 1027.0R
NORTHPORT PIER   0100    5     250/  3/  4 1027.4S
STURGEON BAY CG  0100    3      30/  3       N/A    1 1/4  1
CHAMBERS ISLAND  0100    1     200/  3/  4 1027.4S
MENOMINEE LKSHOR 0100    7     220/  3     1028.2R
$$


USA.gov is the U.S. government's official web portal to all federal, state and local government web resources and services.